Time,TemperatureF,DewpointF,PressureIn,WindDirection,WindDirectionDegrees,WindSpeedMPH,WindSpeedGustMPH,Humidity,HourlyPrecipIn,Conditions,Clouds,dailyrainin,SoftwareType,DateUTC
2013-03-26 00:03:00,31.6,27.0,29.47,SE,135,0.0,-999.0,83,-99.99,,,0.00,Acu-Link.com,2013-03-26 04:03:00,
2013-03-26 00:18:00,31.5,26.9,29.47,SE,135,0.0,-999.0,83,-99.99,,,0.00,Acu-Link.com,2013-03-26 04:18:00,
2013-03-26 00:33:00,31.3,26.7,29.47,SE,135,0.0,-999.0,83,-99.99,,,0.00,Acu-Link.com,2013-03-26 04:33:00,
2013-03-26 00:48:00,31.3,26.7,29.47,SE,135,0.0,-999.0,83,-99.99,,,0.00,Acu-Link.com,2013-03-26 04:48:00,
2013-03-26 01:03:00,31.1,26.8,29.48,SE,135,0.0,-999.0,84,-99.99,,,0.00,Acu-Link.com,2013-03-26 05:03:00,
2013-03-26 01:18:00,31.1,27.1,29.48,SE,135,0.0,-999.0,85,-99.99,,,0.00,Acu-Link.com,2013-03-26 05:18:00,
2013-03-26 01:33:00,31.1,27.1,29.48,SE,135,0.0,-999.0,85,-99.99,,,0.00,Acu-Link.com,2013-03-26 05:33:00,
2013-03-26 01:49:00,31.1,27.1,29.48,SE,135,0.0,-999.0,85,-99.99,,,0.00,Acu-Link.com,2013-03-26 05:49:00,
2013-03-26 02:04:00,31.1,27.1,29.48,SE,135,0.0,-999.0,85,-99.99,,,0.00,Acu-Link.com,2013-03-26 06:04:00,
2013-03-26 02:19:00,31.1,27.4,29.49,SE,135,0.0,-999.0,86,-99.99,,,0.00,Acu-Link.com,2013-03-26 06:19:00,
2013-03-26 02:34:00,31.1,27.4,29.48,SE,135,0.0,-999.0,86,-99.99,,,0.00,Acu-Link.com,2013-03-26 06:34:00,
2013-03-26 02:49:00,31.3,27.9,29.48,SE,135,0.0,-999.0,87,-99.99,,,0.00,Acu-Link.com,2013-03-26 06:49:00,
2013-03-26 03:04:00,31.5,27.8,29.48,SE,135,0.0,-999.0,86,-99.99,,,0.00,Acu-Link.com,2013-03-26 07:04:00,
2013-03-26 03:19:00,31.5,27.8,29.48,SE,135,0.0,-999.0,86,-99.99,,,0.00,Acu-Link.com,2013-03-26 07:19:00,
2013-03-26 03:34:00,31.5,28.1,29.49,SE,135,0.0,-999.0,87,-99.99,,,0.00,Acu-Link.com,2013-03-26 07:34:00,
2013-03-26 03:49:00,31.5,28.1,29.48,SE,135,0.0,-999.0,87,-99.99,,,0.00,Acu-Link.com,2013-03-26 07:49:00,
2013-03-26 04:05:00,31.5,28.1,29.49,SE,135,0.0,-999.0,87,-99.99,,,0.00,Acu-Link.com,2013-03-26 08:05:00,
2013-03-26 04:20:00,31.5,28.4,29.49,SE,135,0.0,-999.0,88,-99.99,,,0.00,Acu-Link.com,2013-03-26 08:20:00,
2013-03-26 04:35:00,31.5,29.2,29.49,SE,135,0.0,-999.0,91,-99.99,,,0.00,Acu-Link.com,2013-03-26 08:35:00,
2013-03-26 04:51:00,31.3,29.5,29.49,SE,135,0.0,-999.0,93,-99.99,,,0.00,Acu-Link.com,2013-03-26 08:51:00,
2013-03-26 05:21:00,30.9,29.1,29.50,SE,135,0.0,-999.0,93,-99.99,,,0.00,Acu-Link.com,2013-03-26 09:21:00,
2013-03-26 05:36:00,30.9,29.6,29.51,SE,135,0.0,-999.0,95,-99.99,,,0.00,Acu-Link.com,2013-03-26 09:36:00,
2013-03-26 05:51:00,30.7,29.4,29.51,SE,135,0.0,-999.0,95,-99.99,,,0.00,Acu-Link.com,2013-03-26 09:51:00,
2013-03-26 06:06:00,30.7,29.4,29.52,SE,135,0.0,-999.0,95,-99.99,,,0.00,Acu-Link.com,2013-03-26 10:06:00,
2013-03-26 06:21:00,30.7,29.7,29.52,SE,135,0.0,-999.0,96,-99.99,,,0.00,Acu-Link.com,2013-03-26 10:21:00,
2013-03-26 06:37:00,30.7,29.7,29.52,SE,135,0.0,-999.0,96,-99.99,,,0.00,Acu-Link.com,2013-03-26 10:37:00,
2013-03-26 06:52:00,30.7,29.7,29.53,SE,135,0.0,-999.0,96,-99.99,,,0.00,Acu-Link.com,2013-03-26 10:52:00,
2013-03-26 07:07:00,30.7,29.7,29.53,SE,135,0.0,-999.0,96,-99.99,,,0.00,Acu-Link.com,2013-03-26 11:07:00,
2013-03-26 07:22:00,30.9,29.9,29.54,SE,135,0.0,-999.0,96,-99.99,,,0.00,Acu-Link.com,2013-03-26 11:22:00,
2013-03-26 07:37:00,30.9,29.4,29.54,SE,135,0.0,-999.0,94,-99.99,,,0.00,Acu-Link.com,2013-03-26 11:37:00,
2013-03-26 07:52:00,30.9,29.1,29.55,SE,135,0.0,-999.0,93,-99.99,,,0.00,Acu-Link.com,2013-03-26 11:52:00,
2013-03-26 08:07:00,31.8,29.2,29.56,SE,135,0.0,-999.0,90,-99.99,,,0.00,Acu-Link.com,2013-03-26 12:07:00,
2013-03-26 08:23:00,32.7,29.3,29.56,SE,135,0.0,-999.0,87,-99.99,,,0.00,Acu-Link.com,2013-03-26 12:23:00,
2013-03-26 08:38:00,33.8,29.2,29.56,SE,135,0.0,-999.0,83,-99.99,,,0.00,Acu-Link.com,2013-03-26 12:38:00,
2013-03-26 08:53:00,35.2,28.7,29.56,SE,135,0.0,-999.0,77,-99.99,,,0.00,Acu-Link.com,2013-03-26 12:53:00,
2013-03-26 09:08:00,34.9,28.8,29.56,SE,135,1.7,-999.0,78,-99.99,,,0.00,Acu-Link.com,2013-03-26 13:08:00,
2013-03-26 09:23:00,36.7,27.9,29.56,West,270,2.7,-999.0,70,-99.99,,,0.00,Acu-Link.com,2013-03-26 13:23:00,
2013-03-26 09:38:00,37.4,26.0,29.57,SSW,202,2.7,-999.0,63,-99.99,,,0.00,Acu-Link.com,2013-03-26 13:38:00,
2013-03-26 09:53:00,39.0,28.2,29.57,ENE,67,2.7,-999.0,65,-99.99,,,0.00,Acu-Link.com,2013-03-26 13:53:00,
2013-03-26 10:08:00,37.0,27.8,29.57,SSW,202,3.2,-999.0,69,-99.99,,,0.00,Acu-Link.com,2013-03-26 14:08:00,
2013-03-26 10:23:00,38.7,27.6,29.58,SSW,202,0.0,-999.0,64,-99.99,,,0.00,Acu-Link.com,2013-03-26 14:23:00,
2013-03-26 10:39:00,37.8,27.1,29.58,SSW,202,0.0,-999.0,65,-99.99,,,0.00,Acu-Link.com,2013-03-26 14:39:00,
2013-03-26 10:54:00,39.6,26.1,29.58,SSW,202,1.7,-999.0,58,-99.99,,,0.00,Acu-Link.com,2013-03-26 14:54:00,
2013-03-26 11:09:00,40.1,24.4,29.58,SSW,202,0.0,-999.0,53,-99.99,,,0.00,Acu-Link.com,2013-03-26 15:09:00,
2013-03-26 11:24:00,38.7,23.5,29.58,SSW,202,1.7,-999.0,54,-99.99,,,0.00,Acu-Link.com,2013-03-26 15:24:00,
2013-03-26 11:39:00,38.3,22.2,29.59,SE,135,2.2,-999.0,52,-99.99,,,0.00,Acu-Link.com,2013-03-26 15:39:00,
2013-03-26 11:54:00,40.3,23.6,29.59,East,90,1.7,-999.0,51,-99.99,,,0.00,Acu-Link.com,2013-03-26 15:54:00,
2013-03-26 12:09:00,40.1,23.9,29.59,SSW,202,1.7,-999.0,52,-99.99,,,0.00,Acu-Link.com,2013-03-26 16:09:00,
2013-03-26 12:24:00,40.1,20.5,29.59,SSW,202,2.2,-999.0,45,-99.99,,,0.00,Acu-Link.com,2013-03-26 16:24:00,
2013-03-26 12:39:00,40.5,24.3,29.59,SSW,202,2.2,-999.0,52,-99.99,,,0.00,Acu-Link.com,2013-03-26 16:39:00,
2013-03-26 12:55:00,39.9,25.9,29.60,SSW,202,0.0,-999.0,57,-99.99,,,0.00,Acu-Link.com,2013-03-26 16:55:00,
2013-03-26 13:10:00,39.6,24.3,29.60,SSW,202,3.2,-999.0,54,-99.99,,,0.00,Acu-Link.com,2013-03-26 17:10:00,
2013-03-26 13:25:00,42.3,25.5,29.60,SSW,202,0.0,-999.0,51,-99.99,,,0.00,Acu-Link.com,2013-03-26 17:25:00,
2013-03-26 13:40:00,41.0,23.8,29.60,West,270,2.7,-999.0,50,-99.99,,,0.00,Acu-Link.com,2013-03-26 17:40:00,
2013-03-26 13:55:00,40.8,22.2,29.60,WSW,247,1.7,-999.0,47,-99.99,,,0.00,Acu-Link.com,2013-03-26 17:55:00,
2013-03-26 14:10:00,40.1,24.8,29.60,West,270,1.1,-999.0,54,-99.99,,,0.00,Acu-Link.com,2013-03-26 18:10:00,
2013-03-26 14:25:00,41.7,24.9,29.59,West,270,1.7,-999.0,51,-99.99,,,0.00,Acu-Link.com,2013-03-26 18:25:00,
2013-03-26 14:40:00,40.5,25.2,29.60,West,270,1.1,-999.0,54,-99.99,,,0.00,Acu-Link.com,2013-03-26 18:40:00,
2013-03-26 14:55:00,40.8,24.1,29.60,SSW,202,1.7,-999.0,51,-99.99,,,0.00,Acu-Link.com,2013-03-26 18:55:00,
2013-03-26 15:11:00,41.2,23.5,29.60,SE,135,2.2,-999.0,49,-99.99,,,0.00,Acu-Link.com,2013-03-26 19:11:00,
2013-03-26 16:26:00,40.5,23.8,29.61,West,270,3.2,-999.0,51,-99.99,,,0.00,Acu-Link.com,2013-03-26 20:26:00,
2013-03-26 16:56:00,39.2,24.4,29.62,SSW,202,0.0,-999.0,55,-99.99,,,0.00,Acu-Link.com,2013-03-26 20:56:00,
2013-03-26 17:11:00,38.7,24.4,29.62,South,180,1.1,-999.0,56,-99.99,,,0.00,Acu-Link.com,2013-03-26 21:11:00,
2013-03-26 17:26:00,38.5,23.8,29.62,South,180,0.0,-999.0,55,-99.99,,,0.00,Acu-Link.com,2013-03-26 21:26:00,
2013-03-26 17:57:00,37.2,24.2,29.63,West,270,0.0,-999.0,59,-99.99,,,0.00,Acu-Link.com,2013-03-26 21:57:00,
2013-03-26 18:12:00,36.7,24.1,29.63,West,270,1.1,-999.0,60,-99.99,,,0.00,Acu-Link.com,2013-03-26 22:12:00,
2013-03-26 18:27:00,36.0,22.7,29.64,West,270,0.0,-999.0,58,-99.99,,,0.00,Acu-Link.com,2013-03-26 22:27:00,
2013-03-26 18:42:00,35.2,22.3,29.65,West,270,0.0,-999.0,59,-99.99,,,0.00,Acu-Link.com,2013-03-26 22:42:00,
2013-03-26 19:12:00,34.0,21.6,29.65,West,270,0.0,-999.0,60,-99.99,,,0.00,Acu-Link.com,2013-03-26 23:12:00,
2013-03-26 19:43:00,32.7,20.8,29.67,West,270,0.0,-999.0,61,-99.99,,,0.00,Acu-Link.com,2013-03-26 23:43:00,
2013-03-26 19:58:00,32.4,20.9,29.67,West,270,0.0,-999.0,62,-99.99,,,0.00,Acu-Link.com,2013-03-26 23:58:00,
2013-03-26 20:13:00,31.8,21.4,29.67,West,270,0.0,-999.0,65,-99.99,,,0.00,Acu-Link.com,2013-03-27 00:13:00,
2013-03-26 20:28:00,31.5,22.2,29.68,West,270,0.0,-999.0,68,-99.99,,,0.00,Acu-Link.com,2013-03-27 00:28:00,
2013-03-26 20:43:00,30.9,22.6,29.68,West,270,0.0,-999.0,71,-99.99,,,0.00,Acu-Link.com,2013-03-27 00:43:00,
2013-03-26 20:58:00,30.6,21.7,29.68,West,270,0.0,-999.0,69,-99.99,,,0.00,Acu-Link.com,2013-03-27 00:58:00,
2013-03-26 21:13:00,30.2,22.6,29.68,West,270,0.0,-999.0,73,-99.99,,,0.00,Acu-Link.com,2013-03-27 01:13:00,
2013-03-26 21:29:00,29.8,22.2,29.68,West,270,0.0,-999.0,73,-99.99,,,0.00,Acu-Link.com,2013-03-27 01:29:00,
2013-03-26 21:44:00,29.3,22.4,29.69,West,270,0.0,-999.0,75,-99.99,,,0.00,Acu-Link.com,2013-03-27 01:44:00,
2013-03-26 21:59:00,28.9,22.0,29.69,West,270,0.0,-999.0,75,-99.99,,,0.00,Acu-Link.com,2013-03-27 01:59:00,
2013-03-26 22:14:00,28.8,22.5,29.69,West,270,1.7,-999.0,77,-99.99,,,0.00,Acu-Link.com,2013-03-27 02:14:00,
2013-03-26 22:29:00,28.8,22.5,29.69,West,270,0.0,-999.0,77,-99.99,,,0.00,Acu-Link.com,2013-03-27 02:29:00,
2013-03-26 22:44:00,28.4,22.7,29.69,West,270,0.0,-999.0,79,-99.99,,,0.00,Acu-Link.com,2013-03-27 02:44:00,
2013-03-26 22:59:00,28.0,22.6,29.70,West,270,0.0,-999.0,80,-99.99,,,0.00,Acu-Link.com,2013-03-27 02:59:00,
2013-03-26 23:14:00,27.7,22.9,29.70,West,270,0.0,-999.0,82,-99.99,,,0.00,Acu-Link.com,2013-03-27 03:14:00,
2013-03-26 23:29:00,27.3,22.0,29.70,West,270,0.0,-999.0,80,-99.99,,,0.00,Acu-Link.com,2013-03-27 03:29:00,
2013-03-26 23:45:00,27.0,21.4,29.71,West,270,0.0,-999.0,79,-99.99,,,0.00,Acu-Link.com,2013-03-27 03:45:00,